Current weather by "City, St" or "zip code"  
 

Current Conditions: Fort Benning, GA

Mostly Cloudy


45.0 F

Last Updated on Jan 19 2022, 10:56 pm EST
Humidity: 85%
Wind Speed: S 5.8 mph
Barometer 30.10 in
Dewpoint: 40.5 F
Visibility: 10.00 mi
Precip: --
Heat Index: NA
Wind Chill: 42 F
Current conditions at:

Fort Benning, GA (KLSF)

Lat: 32.33333 Lon: 84.83333

Local Radar Image active severe weather and emergency alerts image image weather storm and storm spotter reports image weather observation monitoring service image
Local
Radar
Active
Alerts
Storm Reports Obs
Monitoring

Sign-up For Email & Text Message Weather Alert Notification Services



Advertise Here

Observation History for Fort Benning, GA


Time Wind
(mph)
Vis
(mi)
Weather Precip (in) Temperature (F) Relative
Humidity
Wind
Chill
(F)
Heat
Index
(F)
Pressure
Air Dwpt altimeter
(in)
sea level
(mb)
Rmks
10:56 pm EST S 5.8 10.00 Mostly Cloudy -- 45.0 40.5 85% 42 NA 30.10 1019.9
6:56 pm EST SE 5.8 10.00 Partly Cloudy -- 54.0 44.6 71% 53 NA 30.10 1019.9
5:56 pm EST S 4.6 10.00 Fair -- 59.0 45.5 61% 59 NA 30.10 1019.9
4:56 pm EST S 8.1 10.00 Fair -- 62.0 43.2 51% 61 NA 30.11 1020.2
3:56 pm EST S 10.4 10.00 Fair -- 65.0 43.9 46% NA NA 30.11 1020.2
2:56 pm EST S 5.8 10.00 Mostly Cloudy -- 65.0 43.3 46% NA NA 30.13 1020.9
12:56 pm EST SE 6.9 10.00 A Few Clouds -- 60.0 28.8 30% 59 NA 30.19 1022.9
11:56 am EST S 5.8 10.00 Fair -- 58.0 33.4 39% 57 NA 30.24 1024.6
6:56 am EST N 0.0 10.00 Mostly Cloudy -- 31.0 30.0 95% NA NA 30.25 1025.1
5:56 am EST N 0.0 10.00 Partly Cloudy -- 32.0 31.1 95% NA NA 30.23 1024.4
4:56 am EST N 0.0 10.00 A Few Clouds -- 33.0 31.5 96% NA NA 30.22 1024.0
3:56 am EST N 0.0 10.00 A Few Clouds -- 29.0 27.7 95% NA NA 30.23 1024.3
2:56 am EST N 0.0 10.00 Partly Cloudy -- 30.0 28.9 95% NA NA 30.21 1023.6
1:56 am EST N 0.0 10.00 Fair -- 29.0 28.2 95% NA NA 30.18 1022.6
12:56 am EST N 0.0 10.00 Fair -- 28.0 27.0 96% NA NA 30.20 1023.3
11:56 pm EST N 0.0 10.00 Fair -- 31.0 29.3 95% NA NA 30.22 1024.0

Regional Weather Observation


Fort Benning, GA (KLSF)

Mostly Cloudy
45.0 F

Pine Mountain Harris County Airport, GA (KPIM)

Partly Cloudy
53.0 F

Auburn-Opelika Airport, AL (KAUO)

Overcast
55.0 F

Butler Municipal Airport, GA (K6A1)

Fair
51.0 F

Thomaston, Thomaston-Upson County Airport, GA (KOPN)

Fair
50.0 F

Americus Souther Field Airport, GA (KACJ)

Fair
55.0 F

Advertise Here


Advertise Here